This demonstration page uses our WeatherBlox Daily Observations layout. Learn more.

Left ArrowRight Arrow

39.08367, -84.50855

Hourly Observations for May 27, 2017

Temp ( °F °C ) Dew Point ( °F °C ) Humidity (%) Winds ( mph kmh ) Pressure ( in mb ) Visibility ( mi km ) Precip ( " mm )
12:53 am 00:53 Mostly Cloudy 69 20.6 64 17.8 84 84 S 7 11 29.82 1010 10 16 N/A
1:53 am 01:53 Cloudy 69 20.6 65 18.3 87 87 NE 3 6 29.82 1010 10 16 N/A
2:53 am 02:53 Cloudy 68 20 66 18.9 93 93 SSW 5 7 29.82 1010 10 16 N/A
3:53 am 03:53 Cloudy 68 20 66 18.9 93 93 SW 3 6 29.82 1010 10 16 N/A
4:49 am 04:49 Cloudy 66 19 66 19 100 100 N N/A 29.83 1010 9 14 N/A
4:53 am 04:53 Cloudy 68 20 67 19.4 96 96 SSW 3 6 29.82 1010 9 14 N/A
5:23 am 05:23 Cloudy with Light Rain 69 20.6 66 18.9 90 90 N N/A 29.83 1010 10 16 N/A
5:53 am 05:53 Cloudy 70 21.1 66 18.9 87 87 N N/A 29.82 1010 10 16 N/A
6:13 am 06:13 Cloudy 69 20.6 66 18.9 90 90 N N/A 29.83 1010 10 16 N/A
6:53 am 06:53 Cloudy 70 21.1 67 19.4 90 90 N N/A 29.84 1011 10 16 N/A
7:53 am 07:53 Cloudy 71 21.7 68 20 90 90 SSW 3 6 29.85 1011 10 16 N/A
8:30 am 08:30 Cloudy 72 22.2 68 20 87 87 WSW 6 9 29.88 1012 10 16 N/A
8:53 am 08:53 Mostly Cloudy 73 22.8 69 20.6 87 87 WSW 9 15 29.87 1012 10 16 N/A
9:50 am 09:50 Mostly Sunny 75 24 70 21 83 83 W 7 11 29.88 1012 9 14 N/A
9:53 am 09:53 Mostly Sunny 76 24.4 69 20.6 79 79 W 9 15 29.86 1011 9 14 N/A
10:53 am 10:53 Cloudy 76 24.4 67 19.4 74 74 WNW 6 9 29.86 1011 9 14 N/A
11:06 am 11:06 Cloudy 76 24.4 68 20 77 77 W 7 11 29.88 1012 9 14 N/A
11:53 am 11:53 Cloudy 76 24.4 69 20.6 79 79 W 8 13 29.87 1012 8 13 N/A
12:53 pm 12:53 Cloudy 78 25.6 70 21.1 76 76 WSW 7 11 29.87 1011 8 13 N/A
1:53 pm 13:53 Partly Cloudy 81 27.2 71 21.7 72 72 W 8 13 29.86 1011 9 14 N/A
2:53 pm 14:53 Mostly Sunny 82 27.8 69 20.6 65 65 W 10 17 29.85 1011 10 16 N/A
3:53 pm 15:53 Partly Cloudy 83 28.3 70 21.1 65 65 WSW 10 17 29.82 1010 10 16 N/A
4:53 pm 16:53 Partly Cloudy 83 28.3 70 21.1 65 65 W 7 11 29.80 1009 10 16 N/A
5:53 pm 17:53 Mostly Sunny 82 27.8 69 20.6 65 65 W 9 15 29.80 1009 10 16 N/A
6:53 pm 18:53 Mostly Sunny 82 27.8 70 21.1 67 67 WSW 5 7 29.80 1009 10 16 N/A
7:53 pm 19:53 Partly Cloudy 80 26.7 70 21.1 71 71 N N/A 29.80 1009 10 16 N/A
8:32 pm 20:32 Mostly Cloudy with Thunderstorms 77 25 71 21.7 82 82 S 8 13 29.83 1010 10 16 N/A
8:45 pm 20:45 Partly Cloudy 76 24.4 71 21.7 85 85 S 6 9 29.83 1010 9 14 N/A
8:53 pm 20:53 Mostly Cloudy with Nearby Thunderstorms 75 23.9 71 21.7 88 88 S 6 9 29.81 1010 9 14 N/A
9:20 pm 21:20 Mostly Cloudy 73 22.8 72 22.2 96 96 SE 5 7 29.83 1010 9 14 N/A
9:53 pm 21:53 Mostly Cloudy 73 22.8 72 22.2 96 96 S 3 6 29.80 1009 7 11 N/A
10:53 pm 22:53 Mostly Cloudy 74 23.3 70 21.1 88 88 SSW 10 17 29.82 1010 10 16 N/A
11:53 pm 23:53 Mostly Cloudy 70 21.1 63 17.2 79 79 VRB 5 7 29.82 1010 10 16 N/A

Powered by AerisWeather